Regional Weather Roundup
Issued by NWS

Home | Current Version | Previous Version | Graphics & Text | Print | Product List | Glossary On
Versions: 1 2 3 4 5 6 7 8 9 10 11 12 13 14 15 16 17 18 19 20 21 22 23 24 25 26 27 28 29 30 31 32 33 34 35 36 37 38 39 40 41 42 43 44 45 46 47 48 49 50
000
ASUS43 KDTX 300810
RWRMI
MICHIGAN HOURLY REGIONAL WEATHER ROUNDUP
NATIONAL WEATHER SERVICE DETROIT/PONTIAC MI
400 AM EDT SUN AUG 30 2015

NOTE: "FAIR" INDICATES FEW OR NO CLOUDS BELOW 12,000 FEET WITH NO
SIGNIFICANT WEATHER AND/OR OBSTRUCTION TO VISIBILITY.

MIZ047>049-052>055-059>063-066>070-074>076-081>083-300900-
SOUTHEAST LOWER MICHIGAN

CITY           SKY/WX    TMP DP  RH WIND       PRES   REMARKS
ADRIAN         MOCLDY    66  65  96 CALM      30.04F FOG
ALMA           CLOUDY    64  64  99 NE3       30.04S FOG
ANN ARBOR      CLOUDY    66  64  93 CALM      30.03F FOG
BAD AXE        CLOUDY    63  62  97 CALM      30.05F FOG
CARO           CLOUDY    63  62  99 CALM      30.04S FOG
DETROIT CITY   MOCLDY    68  65  90 CALM      30.04F
DETROIT        MOCLDY    68  65  90 CALM      30.04F
FLINT          CLOUDY    67  64  90 SE3       30.04F FOG
GROSSE ILE     CLOUDY    70  64  83 CALM      30.03S
HILLSDALE      MOCLDY    65  65 100 CALM      30.04S FOG
HOWELL         CLOUDY    66  65  99 CALM      30.04S FOG

CITY           SKY/WX    TMP DP  RH WIND       PRES   REMARKS
JACKSON        CLOUDY    66  64  93 S3        30.03F FOG
LAMBERTVILLE   CLOUDY    69  66  91 CALM      30.04S FOG
LANSING        CLOUDY    66  64  93 E3        30.03F
LAPEER         CLOUDY    64  64 100 CALM      30.05S FOG
MASON          CLOUDY    67  64  90 CALM      30.03S FOG
MONROE         CLOUDY    66  65  97 CALM      30.03F FOG
MT. CLEMENS    CLOUDY    67  65  94 SE2       30.03S
PONTIAC        CLOUDY    66  65  96 CALM      30.04F FOG
PORT HOPE        N/A     65  63  93 CALM      30.04S
PORT HURON     CLOUDY    64  64 100 CALM      30.05S
TRI CITIES     CLOUDY    66  63  90 E3        30.05S FOG
MIDLAND        CLOUDY    64  63  96 CALM      30.04S FOG
TROY           CLOUDY    67  66  97 CALM      30.06S FOG
SAGINAW HB     CLOUDY    63  63 100 CALM      30.04S FOG
$$
MIZ043>046-050>051-056>058-064>065-071>073-077>080-300900-
SOUTHWEST LOWER MICHIGAN

CITY           SKY/WX    TMP DP  RH WIND       PRES   REMARKS
BATTLE CREEK   PTCLDY    66  63  90 S5        30.02F
BENTON HARBOR  CLOUDY    68  67  96 W6        30.01R FOG
BIG RAPIDS     CLOUDY    64  63  97 CALM      30.04S FOG
COLDWATER      CLOUDY    67  66  97 CALM      30.02S
FREMONT        CLOUDY    64  64 100 E3        30.03S FOG
HOLLAND        CLOUDY    68  65  90 CALM      30.02S FOG
GRAND RAPIDS   CLOUDY    66  65  96 E3        30.02F FOG
IONIA          CLOUDY    65  65 100 E3        30.02F FOG
KALAMAZOO      PTCLDY    67  64  90 S3        30.02S FOG
LUDINGTON        N/A     62  60  93 N5        30.04S FOG
MARSHALL       MOCLDY    65  64  94 CALM      30.02S
MOUNT PLEASANT CLOUDY    65  63  93 CALM      30.04R FOG
MUSKEGON       CLOUDY    66  63  90 NE5       30.02S FOG
SOUTH HAVEN    CLOUDY    67  66  95 CALM      30.00S FOG
$$
MIZ016>042-300900-
NORTHERN LOWER MICHIGAN

CITY           SKY/WX    TMP DP  RH WIND       PRES   REMARKS
ALPENA         FOG       55  54  96 CALM      30.05S VSB 3/4
BEAVER ISLAND  CLOUDY    58  57  97 CALM      30.04S
BELLAIRE       FOG       56  55  96 CALM      30.05S VSB 1/2
CADILLAC       FOG       57  55  93 CALM      30.05S VSB 1/4
CHARLEVOIX     CLEAR     57  57  99 CALM      30.07S FOG
FRANKFORT      CLOUDY    57  56  97 CALM      30.05R
GAYLORD        PTCLDY    56  55  97 W3        30.06S
GRAYLING       FOG       52  51  96 CALM      30.07S VSB 1/4
HARBOR SPRINGS CLEAR     56  55  97 CALM      30.05R
HOUGHTON LAKE  FOG       53  53 100 CALM      30.06S VSB 1/4
MANISTEE       CLOUDY    57  54  88 CALM      30.05R
OSCODA         FOG       56  55  99 CALM      30.05R VSB<1/4
PELLSTON       CLEAR     51  50  96 CALM      30.05S
ROGERS CITY    CLEAR     60  58  94 SW5       30.06R
TRAVERSE CITY  PTCLDY    59  57  93 CALM      30.04R FOG
$$
MIZ007>008-015-300900-
EASTERN UPPER MICHIGAN

CITY           SKY/WX    TMP DP  RH WIND       PRES   REMARKS
KINROSS        CLEAR     59  59 100 S3        30.03S
MACKINAC ISLAN CLEAR     60  58  96 SW6       30.04S
NEWBERRY       MOCLDY    60  60  99 SW10      30.02S FOG
S. S. MARIE    FOG       59  58  96 CALM      30.03S VSB 1/4
MUNISING         N/A     64  59  83 S10       29.99F
$$
MIZ004>006-011>014-085-300900-
CENTRAL UPPER MICHIGAN

CITY           SKY/WX    TMP DP  RH WIND       PRES   REMARKS
MANISTIQUE     PTCLDY    61  60  97 SW3       30.02S FOG
ESCANABA         N/A     57  55  94 W3        30.02S VSB 1/2
MENOMINEE      CLOUDY    57  55  94 CALM      30.03S VSB 1/2
SAWYER-GWINN   FOG       58  56  96 S5        30.02S VSB 1/4
$$
MIZ001>003-009>011-084-300900-
WESTERN UPPER MICHIGAN

CITY           SKY/WX    TMP DP  RH WIND       PRES   REMARKS
IRON MOUNTAIN  CLEAR     57  56  96 CALM      30.03S FOG
HOUGHTON       MOCLDY    60  58  92 CALM      29.98R
IRONWOOD       CLEAR     63  61  94 SW9       29.97S
$$

ABBREVIATIONS USED IN REMARKS
   TC - TEMPERATURE IN CELSIUS
  WCI - WIND CHILL INDEX
   HX - HEAT INDEX
  VSB - VISIBILITY



USA.gov is the U.S. government's official web portal to all federal, state and local government web resources and services.